404 - Page Not Found

404

Error - Page Not Found


Please check the URL.

Otherwise, click here to be redirected to the homepage.

  • Currently

    Reported at Minneapolis, Minneapolis-St. Paul International Airport, MN
    1:53 PM CST FRI FEB 23 2018
  • 32°F0°C
  • Partly Cloudy
    Partly Cloudy
  • Feels Like:25°F-4°CDew Point:21°F-6°CHumidity:64% Winds:SSW 9 mph 14 kph
    Pressure:30.18 in1022 hPaVisibility:10.00 miles16090.00 meters
Time Weather Temp Dew Point
Humidity Winds Visibility Pressure Precipitation
1 hr 24 hr
Monday, February 12
00:53 00:53 Cloudy Cloudy 7°F-14°C -3°F-19°C 63% SE 3 mphSE 6 kph 10.0 miles16.1 km 30.68 in1039 hPa 0.00 in0.00 mm --
23:53 23:53 Cloudy Cloudy 5°F-15°C -4°F-20°C 66% SE 5 mphSE 7 kph 10.0 miles16.1 km 30.68 in1039 hPa 0.00 in0.00 mm --
22:53 22:53 Mostly Cloudy Mostly Cloudy 6°F-14°C -4°F-20°C 63% SE 5 mphSE 7 kph 10.0 miles16.1 km 30.71 in1040 hPa 0.00 in0.00 mm --
21:53 21:53 Mostly Cloudy Mostly Cloudy 7°F-14°C -3°F-19°C 63% SSE 6 mphSSE 9 kph 10.0 miles16.1 km 30.71 in1040 hPa 0.00 in0.00 mm --
20:53 20:53 Cloudy Cloudy 7°F-14°C -3°F-19°C 63% SSE 5 mphSSE 7 kph 10.0 miles16.1 km 30.71 in1040 hPa 0.00 in0.00 mm --
19:53 19:53 Cloudy Cloudy 8°F-13°C -3°F-19°C 60% SSE 8 mphSSE 13 kph 10.0 miles16.1 km 30.71 in1040 hPa 0.00 in0.00 mm --
18:53 18:53 Cloudy Cloudy 11°F-12°C -7°F-22°C 44% S 3 mphS 6 kph 10.0 miles16.1 km 30.74 in1041 hPa 0.00 in0.00 mm --
17:53 17:53 Cloudy Cloudy 12°F-11°C -7°F-22°C 42% CalmCalm 10.0 miles16.1 km 30.74 in1041 hPa 0.00 in0.00 mm --
16:53 16:53 Cloudy Cloudy 11°F-12°C -7°F-22°C 44% E 3 mphE 6 kph 10.0 miles16.1 km 30.74 in1041 hPa 0.00 in0.00 mm --
15:53 15:53 Cloudy Cloudy 11°F-12°C -5°F-21°C 48% N 5 mphN 7 kph 10.0 miles16.1 km 30.74 in1041 hPa 0.00 in0.00 mm --
14:53 14:53 Mostly Cloudy Mostly Cloudy 11°F-12°C -6°F-21°C 46% CalmCalm 10.0 miles16.1 km 30.77 in1042 hPa 0.00 in0.00 mm --
13:53 13:53 Mostly Cloudy Mostly Cloudy 10°F-12°C -5°F-21°C 50% CalmCalm 10.0 miles16.1 km 30.77 in1042 hPa 0.00 in0.00 mm --
12:53 12:53 Mostly Cloudy Mostly Cloudy 8°F-13°C -4°F-20°C 57% N 5 mphN 7 kph 10.0 miles16.1 km 30.77 in1042 hPa 0.00 in0.00 mm --
11:53 11:53 Mostly Cloudy Mostly Cloudy 7°F-14°C -4°F-20°C 60% NW 3 mphNW 6 kph 10.0 miles16.1 km 30.8 in1043 hPa 0.00 in0.00 mm --
10:53 10:53 Mostly Cloudy Mostly Cloudy 5°F-15°C -6°F-21°C 60% N 5 mphN 7 kph 10.0 miles16.1 km 30.77 in1042 hPa 0.00 in0.00 mm --
09:53 09:53 Mostly Cloudy Mostly Cloudy 3°F-16°C -5°F-21°C 69% N 9 mphN 15 kph 10.0 miles16.1 km 30.74 in1041 hPa 0.00 in0.00 mm --
08:53 08:53 Mostly Cloudy Mostly Cloudy 0°F-18°C -6°F-21°C 76% N 9 mphN 15 kph 10.0 miles16.1 km 30.71 in1040 hPa 0.00 in0.00 mm --
07:53 07:53 Partly Cloudy Partly Cloudy 0°F-18°C -6°F-21°C 76% N 7 mphN 11 kph 10.0 miles16.1 km 30.68 in1039 hPa 0.00 in0.00 mm --
06:53 06:53 Clear Clear 1°F-17°C -5°F-21°C 75% NW 7 mphNW 11 kph 10.0 miles16.1 km 30.65 in1038 hPa 0.00 in0.00 mm --
05:53 05:53 Clear Clear 2°F-17°C -4°F-20°C 76% NNW 7 mphNNW 11 kph 10.0 miles16.1 km 30.62 in1037 hPa 0.00 in0.00 mm --
04:53 04:53 Clear Clear 2°F-17°C -3°F-19°C 80% NW 6 mphNW 9 kph 10.0 miles16.1 km 30.59 in1036 hPa 0.00 in0.00 mm --
03:53 03:53 Clear Clear 4°F-16°C -2°F-19°C 76% W 7 mphW 11 kph 10.0 miles16.1 km 30.56 in1035 hPa 0.00 in0.00 mm --
02:53 02:53 Clear Clear 5°F-15°C -2°F-19°C 72% NW 8 mphNW 13 kph 10.0 miles16.1 km 30.5 in1033 hPa 0.00 in0.00 mm --
01:53 01:53 Clear Clear 6°F-14°C -1°F-18°C 73% WNW 9 mphWNW 15 kph 10.0 miles16.1 km 30.5 in1033 hPa 0.00 in0.00 mm --
404 - Page Not Found

404

Error - Page Not Found


Please check the URL.

Otherwise, click here to be redirected to the homepage.